Hurricane Symbol View the latest observations near Atlantic Tropical Storm Alberto.

Station DELD1 - 8551762 - Delaware City, DE Image indicating link to RSS feed of recent meteorological observations for station DELD1


Conditions at DELD1 as of
(7:30 pm EDT)
2330 GMT on 06/19/2024:
     

Click on the graph icon in the table below to see a time series plot of the last five days of that observation.

5-day plot - Wind Direction Wind Direction (WDIR): S ( 180 deg true )
5-day plot - Wind Speed Wind Speed (WSPD): 6.0 kts
5-day plot - Wind Gust Wind Gust (GST): 12.0 kts
5-day plot - Atmospheric Pressure Atmospheric Pressure (PRES):30.32 in
5-day plot - Air Temperature Air Temperature (ATMP): 78.6 °F
5-day plot - Wind Speed at 10 Meters Wind Speed at 10 meters (WSPD10M): 5.8 kts
5-day plot - Wind Speed at 20 Meters Wind Speed at 20 meters (WSPD20M): 5.8 kts
5-day plot -  Wind Speed, Wind Gust and Atmospheric Pressure Combined plot of Wind Speed, Gust, and Air Pressure
NOS Water Level Observation Network Water Level
Previous observations
TIME
(EDT)
5-day plot - Wind Direction
WDIR
 
5-day plot - Wind Speed
WSPD
kts
5-day plot - Wind Gust
GST
kts
5-day plot - Wave Height
WVHT
ft
5-day plot - Dominant Wave Period
DPD
sec
5-day plot - Average Wave Period
APD
sec
5-day plot - Mean Wave Direction
MWD
 
5-day plot - Atmospheric Pressure
PRES
in
5-day plot - Pressure Tendency
PTDY
in
5-day plot - Air Temperature
ATMP
°F
5-day plot - Water Temperature
WTMP
°F
5-day plot - Dew Point
DEWP
°F
5-day plot - Salinity
SAL
psu
5-day plot - Visibility
VIS
nmi
5-day plot - Tide (above MLLW)
TIDE
ft
2024-06-19 07:24 pm S 8.0 13.0----30.32- 78.4-----
2024-06-19 07:00 pm S 8.0 11.1----30.32-0.01 79.3-----
2024-06-19 06:54 pm S 6.0 12.0----30.32- 79.2-----
2024-06-19 06:48 pm S 9.9 14.0----30.32-------
2024-06-19 06:42 pm S 8.9 14.0----30.32-------
2024-06-19 06:36 pm S 7.0 12.0----30.32-------
2024-06-19 06:30 pm S 9.9 15.0----30.32- 79.2-----
2024-06-19 06:24 pm S 8.0 15.0----30.32- 79.9-----
2024-06-19 06:18 pmSSE 8.9 13.0----30.32- 79.5-----
2024-06-19 06:12 pm S 8.9 15.0----30.32- 79.7-----
2024-06-19 06:06 pm S 8.9 13.0----30.32- 79.7-----
2024-06-19 06:00 pm S 9.9 15.0----30.31-0.01 79.3-----
2024-06-19 05:54 pmSSE 8.9 12.0----30.32- 79.3-----
2024-06-19 05:48 pm S 8.0 15.0----30.31- 79.5-----
2024-06-19 05:42 pm S 8.9 15.0----30.31- 79.7-----
2024-06-19 05:36 pmSSE 11.1 15.0----30.31- 79.7-----
2024-06-19 05:30 pm S 6.0 14.0----30.31- 80.6-----
2024-06-19 05:24 pm S 8.9 13.0----30.31- 80.4-----
2024-06-19 05:18 pmSSE 8.0 13.0----30.32- 80.2-----
2024-06-19 05:12 pm S 7.0 11.1----30.32- 80.8-----
2024-06-19 05:06 pm S 8.0 11.1----30.32- 80.4-----
2024-06-19 05:00 pm S 11.1 14.0----30.32-0.01 80.1-----
2024-06-19 04:54 pm S 8.9 14.0----30.32- 80.2-----
2024-06-19 04:48 pmSSE 8.9 15.0----30.32- 80.6-----
2024-06-19 04:42 pm S 8.9 15.0----30.32- 81.5-----
2024-06-19 04:36 pmSSE 12.0 15.9----30.32- 81.0-----
2024-06-19 04:30 pm S 7.0 15.9----30.32- 81.9-----
2024-06-19 04:24 pmSSE 8.0 15.9----30.32- 81.7-----
2024-06-19 04:18 pmSSE 9.9 14.0----30.33- 81.1-----
2024-06-19 04:12 pm S 8.0 13.0----30.33- 82.2-----
2024-06-19 04:06 pm S 8.0 12.0----30.33- 82.2-----
2024-06-19 04:00 pm S 8.0 13.0----30.33-0.02 82.2-----
2024-06-19 03:54 pm S 8.9 14.0----30.33- 81.7-----
2024-06-19 03:48 pmSSE 8.9 14.0----30.33- 81.5-----
2024-06-19 03:42 pmSSE 9.9 15.0----30.33- 81.7-----
2024-06-19 03:36 pm S 8.9 14.0----30.33- 82.0-----
2024-06-19 03:30 pm S 8.0 13.0----30.33- 82.4-----
2024-06-19 03:24 pm S 11.1 13.0----30.33- 82.8-----
2024-06-19 03:18 pmSSE 8.9 12.0----30.33- 82.4-----
2024-06-19 03:12 pmSSE 8.9 14.0----30.33- 82.6-----
2024-06-19 03:06 pmSSE 8.0 12.0----30.33- 82.8-----
2024-06-19 03:00 pm S 8.0 13.0----30.33-0.03 83.1-----
2024-06-19 02:54 pmSSE 8.9 11.1----30.33- 82.8-----
2024-06-19 02:48 pmSSE 8.0 11.1----30.33- 82.8-----
2024-06-19 02:42 pm S 7.0 11.1----30.33- 83.5-----
2024-06-19 02:36 pmSSE 7.0 11.1----30.32- 82.2-----
2024-06-19 02:30 pm SE 8.0 11.1----30.33- 81.9-----
2024-06-19 02:24 pm SE 8.0 9.9----30.33- 82.2-----
2024-06-19 02:18 pmSSE 7.0 11.1----30.33- 82.6-----
2024-06-19 02:12 pm SE 8.0 9.9----30.33- 81.7-----
2024-06-19 02:06 pm SE 8.0 11.1----30.33- 81.9-----
2024-06-19 02:00 pm SE 8.9 11.1----30.33-0.03 81.5-----
2024-06-19 01:54 pm SE 8.0 11.1----30.34- 81.5-----
2024-06-19 01:48 pm SE 8.0 9.9----30.34- 81.3-----
2024-06-19 01:42 pm SE 8.0 9.9----30.34- 80.8-----
2024-06-19 01:36 pm SE 8.0 11.1----30.34- 80.8-----
2024-06-19 01:30 pmSSE 7.0 9.9----30.35- 81.1-----
2024-06-19 01:24 pm SE 8.0 11.1----30.35- 80.4-----
2024-06-19 01:18 pm SE 9.9 12.0----30.35- 79.9-----
2024-06-19 01:12 pm SE 11.1 12.0----30.35- 79.9-----
2024-06-19 01:06 pm SE 9.9 12.0----30.35- 79.9-----
2024-06-19 01:00 pm SE 9.9 12.0----30.35-0.02 79.9-----
2024-06-19 12:54 pm SE 8.9 11.1----30.35- 79.7-----
2024-06-19 12:48 pm SE 9.9 11.1----30.35- 79.2-----
2024-06-19 12:42 pm SE 9.9 11.1----30.35- 79.2-----
2024-06-19 12:36 pm SE 9.9 12.0----30.35- 79.5-----
2024-06-19 12:30 pm SE 9.9 11.1----30.35- 78.8-----
2024-06-19 12:24 pm SE 11.1 12.0----30.36- 79.2-----
2024-06-19 12:18 pmESE 9.9 9.9----30.36- 78.8-----
2024-06-19 12:12 pm SE 8.9 11.1----30.36- 78.6-----
2024-06-19 12:06 pmESE 8.9 11.1----30.36- 78.6-----
2024-06-19 12:00 pmESE 8.0 8.9----30.36-0.01 78.4-----
2024-06-19 11:54 am SE 8.0 9.9----30.36- 78.4-----
2024-06-19 11:48 am SE 9.9 11.1----30.36- 78.4-----
2024-06-19 11:42 am SE 8.9 11.1----30.36- 78.4-----
2024-06-19 11:36 amESE 8.0 9.9----30.36- 78.1-----
2024-06-19 11:30 amESE 8.0 9.9----30.36- 77.7-----
2024-06-19 11:24 am SE 8.0 9.9----30.36- 77.9-----
2024-06-19 11:18 am SE 8.0 8.9----30.36- 77.7-----
2024-06-19 11:12 am SE 8.9 9.9----30.36- 77.7-----
2024-06-19 11:06 am SE 8.9 11.1----30.36- 77.9-----
2024-06-19 11:00 am SE 9.9 12.0----30.36+0.00 77.5-----
2024-06-19 10:54 am SE 8.9 9.9----30.37- 77.0-----
2024-06-19 10:48 am SE 8.9 9.9----30.37- 77.0-----
2024-06-19 10:42 am SE 8.0 8.9----30.37- 76.8-----
2024-06-19 10:36 am SE 8.0 9.9----30.37- 76.8-----
2024-06-19 10:30 am SE 8.0 8.9----30.37- 76.6-----
2024-06-19 10:24 am SE 8.9 9.9----30.37- 76.5-----
2024-06-19 10:18 am SE 7.0 9.9----30.37- 76.5-----
2024-06-19 10:12 amENE 4.1 5.1----30.37- 77.4-----
2024-06-19 10:06 am E 5.1 8.0----30.37- 76.5-----
2024-06-19 10:00 amESE 4.1 5.1----30.37+0.03 77.0-----
2024-06-19 09:54 am S 1.9 4.1----30.37- 79.2-----
2024-06-19 09:48 am S 1.9 4.1----30.37- 79.2-----
2024-06-19 09:42 am- 0.0 6.0----30.37- 78.4-----
2024-06-19 09:36 amSSW 5.1 6.0----30.37- 77.7-----
2024-06-19 09:30 amSSW 2.9 5.1----30.37- 77.9-----
2024-06-19 09:24 am S 5.1 8.0----30.37- 77.5-----
2024-06-19 09:18 am SW 4.1 6.0----30.37- 76.5-----
2024-06-19 09:12 am SW 5.1 8.0----30.37- 76.8-----
2024-06-19 09:06 amSSW 2.9 8.0----30.37- 77.4-----
2024-06-19 09:00 am SE 2.9 5.1----30.37+0.04 77.0-----
2024-06-19 08:54 am SW 2.9 5.1----30.37- 76.8-----
2024-06-19 08:48 am S 4.1 5.1----30.37- 76.6-----
2024-06-19 08:42 am SE 1.0 5.1----30.37- 76.5-----
2024-06-19 08:36 am S 1.9 5.1----30.37- 76.1-----
2024-06-19 08:30 amSSE 2.9 6.0----30.37- 75.9-----
2024-06-19 08:24 am S 2.9 7.0----30.37- 75.6-----
2024-06-19 08:18 am S 4.1 6.0----30.37- 75.2-----
2024-06-19 08:12 am S 5.1 6.0----30.37- 74.7-----
2024-06-19 08:06 am S 5.1 7.0----30.36- 74.1-----
2024-06-19 08:00 am S 5.1 7.0----30.36+0.04 74.1-----
2024-06-19 07:54 am S 4.1 6.0----30.36- 74.1-----
2024-06-19 07:48 am S 5.1 6.0----30.36-------
2024-06-19 07:42 am S 4.1 5.1----30.36-------
2024-06-19 07:36 am S 4.1 6.0----30.36-------
2024-06-19 07:30 am S 4.1 5.1----30.36- 72.7-----
2024-06-19 07:24 am S 2.9 5.1----30.36- 72.3-----
2024-06-19 07:18 am S 2.9 4.1----30.35- 71.6-----
2024-06-19 07:12 amSSW 4.1 6.0----30.35- 71.1-----
2024-06-19 07:06 am S 4.1 6.0----30.35- 71.1-----
2024-06-19 07:00 am S 4.1 6.0----30.34+0.03 71.4-----
2024-06-19 06:54 am S 4.1 7.0----30.34- 71.8-----
2024-06-19 06:48 am S 4.1 6.0----30.34- 71.8-----
2024-06-19 06:42 am S 5.1 5.1----30.34- 71.8-----
2024-06-19 06:36 am S 2.9 5.1----30.34- 71.2-----
2024-06-19 06:30 am S 4.1 5.1----30.33- 70.7-----
2024-06-19 06:24 amSSW 1.9 5.1----30.33- 70.3-----
2024-06-19 06:18 am S 2.9 5.1----30.33- 70.0-----
2024-06-19 06:12 am S 2.9 5.1----30.33- 69.6-----
2024-06-19 06:06 am S 1.0 4.1----30.33- 69.3-----
2024-06-19 06:00 amSSW 1.9 5.1----30.33+0.03 68.9-----
2024-06-19 05:54 am S 2.9 4.1----30.33- 68.7-----
2024-06-19 05:48 amSSW 1.9 4.1----30.33- 68.7-----
2024-06-19 05:42 am S 2.9 5.1----30.33- 68.7-----
2024-06-19 05:36 am S 4.1 6.0----30.33- 68.9-----
2024-06-19 05:30 am S 2.9 5.1----30.33- 68.7-----
2024-06-19 05:24 amSSW 4.1 7.0----30.33- 68.7-----
2024-06-19 05:18 amSSW 1.9 6.0----30.33- 68.9-----
2024-06-19 05:12 am S 2.9 5.1----30.32- 68.9-----
2024-06-19 05:06 am S 2.9 6.0----30.32- 68.9-----
2024-06-19 05:00 am S 4.1 6.0----30.32+0.03 69.1-----
2024-06-19 04:54 am S 4.1 6.0----30.32- 69.3-----
2024-06-19 04:48 am S 4.1 5.1----30.31- 69.3-----
2024-06-19 04:42 am S 2.9 5.1----30.31- 69.3-----
2024-06-19 04:36 am S 2.9 5.1----30.31- 69.3-----
2024-06-19 04:30 am S 2.9 5.1----30.31- 69.4-----
2024-06-19 04:24 am S 2.9 4.1----30.31- 69.4-----
2024-06-19 04:18 am S 4.1 4.1----30.31- 69.6-----
2024-06-19 04:12 am S 2.9 4.1----30.31- 69.8-----
2024-06-19 04:06 am S 2.9 4.1----30.31- 69.8-----
2024-06-19 04:00 amSSW 1.9 2.9----30.31+0.02 69.8-----
2024-06-19 03:54 am S 1.9 5.1----30.31- 70.0-----
2024-06-19 03:48 am S 1.9 5.1----30.31- 70.2-----
2024-06-19 03:42 am S 4.1 5.1----30.31- 70.2-----
2024-06-19 03:36 am S 2.9 5.1----30.31- 70.2-----
2024-06-19 03:30 am S 2.9 5.1----30.30- 70.3-----
2024-06-19 03:24 am S 4.1 5.1----30.30- 70.3-----
2024-06-19 03:18 am S 1.9 5.1----30.30- 70.5-----
2024-06-19 03:12 am S 5.1 8.0----30.30- 70.7-----
2024-06-19 03:06 am S 5.1 7.0----30.30- 70.7-----
2024-06-19 03:00 am S 2.9 5.1----30.30+0.01 70.7-----
2024-06-19 02:54 am S 2.9 5.1----30.30- 70.7-----
2024-06-19 02:48 am S 1.9 4.1----30.30- 70.9-----
2024-06-19 02:42 amSSW 1.9 5.1----30.30- 71.1-----
2024-06-19 02:36 amSSW 2.9 4.1----30.30- 71.1-----
2024-06-19 02:30 amSSW 2.9 7.0----30.30- 71.2-----
2024-06-19 02:24 amSSW 4.1 8.0----30.29- 71.4-----
2024-06-19 02:18 am S 5.1 7.0----30.29- 71.8-----
2024-06-19 02:12 am S 5.1 7.0----30.29- 71.8-----
2024-06-19 02:06 am S 4.1 6.0----30.29- 71.8-----
2024-06-19 02:00 amSSW 4.1 7.0----30.29+0.01 72.1-----
2024-06-19 01:54 amSSW 4.1 7.0----30.29- 72.1-----
2024-06-19 01:48 am S 4.1 6.0----30.29- 72.3-----
2024-06-19 01:42 amSSW 2.9 7.0----30.29- 72.5-----
2024-06-19 01:36 amSSW 2.9 5.1----30.29- 72.5-----
2024-06-19 01:30 amSSW 2.9 8.0----30.29-------
2024-06-19 01:24 am S 5.1 8.0----30.29-------
2024-06-19 01:18 am S 5.1 8.9----30.29- 73.2-----
2024-06-19 01:12 am S 5.1 8.0----30.29- 73.4-----
2024-06-19 01:06 am S 5.1 7.0----30.29- 73.4-----
2024-06-19 01:00 am S 2.9 6.0----30.29+0.01 73.6-----
2024-06-19 12:54 am S 5.1 7.0----30.29- 73.9-----
2024-06-19 12:48 am S 5.1 7.0----30.29- 73.9-----
2024-06-19 12:42 amSSW 4.1 6.0----30.29- 73.9-----
2024-06-19 12:36 am S 5.1 7.0----30.29- 74.3-----
2024-06-19 12:30 am S 6.0 8.9----30.29- 74.7-----
2024-06-19 12:24 am S 5.1 7.0----30.29- 74.8-----
2024-06-19 12:18 am S 6.0 8.9----30.29- 74.8-----
2024-06-19 12:12 am S 6.0 9.9----30.29- 75.0-----
2024-06-19 12:06 am S 5.1 8.0----30.29- 75.4-----
2024-06-19 12:00 am S 6.0 8.9----30.29+0.04 75.4-----
2024-06-18 11:54 pm S 6.0 8.0----30.29- 75.6-----
2024-06-18 11:48 pm S 6.0 8.0----30.29- 75.6-----
2024-06-18 11:42 pm S 5.1 8.0----30.29- 75.2-----
2024-06-18 11:36 pm S 4.1 6.0----30.29- 74.5-----
2024-06-18 11:30 pm S 4.1 6.0----30.29- 73.9-----
2024-06-18 11:24 pm S 4.1 5.1----30.29- 73.9-----
2024-06-18 11:18 pm S 4.1 6.0----30.28- 73.8-----
2024-06-18 11:12 pm S 4.1 6.0----30.28- 73.8-----
2024-06-18 11:06 pmSSE 4.1 7.0----30.28- 73.8-----
2024-06-18 11:00 pm S 4.1 7.0----30.28+0.04 73.6-----
2024-06-18 10:54 pmSSE 5.1 6.0----30.28- 73.6-----
2024-06-18 10:48 pm S 4.1 6.0----30.28- 73.6-----
2024-06-18 10:42 pmSSE 4.1 7.0----30.28- 73.6-----
2024-06-18 10:36 pmSSE 5.1 7.0----30.28- 73.6-----
2024-06-18 10:30 pmSSE 5.1 7.0----30.28- 73.6-----
2024-06-18 10:24 pmSSE 4.1 6.0----30.28- 73.6-----
2024-06-18 10:18 pm S 4.1 6.0----30.28- 73.8-----
2024-06-18 10:12 pmSSE 5.1 7.0----30.27- 73.8-----
2024-06-18 10:06 pmSSE 5.1 7.0----30.27- 73.8-----
2024-06-18 10:00 pmSSE 6.0 8.9----30.27+0.05 73.8-----
2024-06-18 09:54 pmSSE 5.1 7.0----30.27- 73.9-----
2024-06-18 09:48 pmSSE 5.1 8.0----30.27- 73.9-----
2024-06-18 09:42 pmSSE 7.0 8.9----30.26- 74.1-----
2024-06-18 09:36 pmSSE 4.1 6.0----30.26- 74.1-----
2024-06-18 09:30 pmSSE 5.1 7.0----30.26- 74.3-----
2024-06-18 09:24 pm S 5.1 7.0----30.26- 74.3-----
2024-06-18 09:18 pm S 4.1 6.0----30.26- 74.5-----
2024-06-18 09:12 pmSSE 6.0 8.9----30.26- 74.5-----
2024-06-18 09:06 pm S 5.1 9.9----30.25- 74.7-----
2024-06-18 09:00 pmSSE 6.0 12.0----30.25+0.03 74.8-----
2024-06-18 08:54 pmSSE 8.0 12.0----30.24- 75.0-----
2024-06-18 08:48 pmSSE 8.0 12.0----30.24- 75.0-----
2024-06-18 08:42 pmSSE 6.0 12.0----30.24- 75.2-----
2024-06-18 08:36 pmSSE 8.0 11.1----30.24- 75.4-----
2024-06-18 08:30 pmSSE 7.0 9.9----30.24- 75.6-----
2024-06-18 08:24 pmSSE 7.0 9.9----30.24- 75.9-----
2024-06-18 08:18 pmSSE 6.0 9.9----30.24- 76.1-----
2024-06-18 08:12 pmSSE 7.0 12.0----30.24- 76.3-----
2024-06-18 08:06 pmSSE 8.0 11.1----30.24- 76.6-----
2024-06-18 08:00 pmSSE 5.1 9.9----30.24+0.01 77.0-----
2024-06-18 07:54 pmSSE 7.0 12.0----30.24- 77.2-----